�N����,����,�~����,�C��,���x,�C��,����,���ϕ���,�ő�u�ԕ���,�ő厞����,���˗�,�I�_���x,�n�����x,�ő啗���N��,DTYPE
"20/04/20","00:10",0.0,11.6,90.2,1006.4,297.4,1.3,1.9,339.1,0.00,10.1,14.2,"00:09:44",1
"20/04/20","00:20",0.0,11.6,90.6,1006.2,331.0,1.3,2.4,337.8,0.00,10.2,13.9,"00:11:12",1
"20/04/20","00:30",0.0,11.7,90.9,1005.7,321.7,0.7,1.8,332.8,0.00,10.3,14.0,"00:26:16",1
"20/04/20","00:40",0.2,11.7,91.3,1006.2,296.2,1.1,2.0,315.7,0.00,10.4,14.0,"00:32:16",1
"20/04/20","00:50",0.2,11.6,91.5,1005.5,266.3,0.3,1.1,288.0,0.00,10.3,14.2,"00:40:56",1
"20/04/20","01:00",0.4,11.6,91.8,1004.8,293.2,0.1,0.6,310.2,0.00,10.4,14.0,"00:55:28",1
"20/04/20","01:10",0.2,11.7,92.1,1005.0,164.0,0.2,0.6,231.6,0.00,10.5,13.9,"01:00:02",1
"20/04/20","01:20",0.2,11.8,92.2,1004.5,259.7,0.8,1.1,245.0,0.00,10.6,14.0,"01:11:44",1
"20/04/20","01:30",0.0,11.9,92.3,1004.8,302.0,1.1,1.4,304.7,0.00,10.7,14.2,"01:27:28",1
"20/04/20","01:40",0.0,11.8,92.5,1004.3,287.8,1.1,1.8,272.6,0.00,10.7,14.1,"01:31:36",1
"20/04/20","01:50",0.2,11.8,92.8,1004.1,300.7,1.2,1.7,308.0,0.00,10.7,13.8,"01:49:20",1
"20/04/20","02:00",0.2,11.8,92.8,1004.1,303.1,0.8,1.4,310.7,0.00,10.7,13.8,"01:53:44",1
"20/04/20","02:10",0.2,11.9,93.0,1004.1,268.5,0.8,1.2,235.3,0.00,10.8,13.8,"02:02:06",1
"20/04/20","02:20",0.2,12.1,93.1,1003.8,267.5,0.8,1.3,237.5,0.00,11.1,13.7,"02:13:08",1
"20/04/20","02:30",0.4,12.2,93.2,1003.8,314.3,1.0,1.3,306.7,0.00,11.2,13.8,"02:21:44",1
"20/04/20","02:40",0.4,12.6,93.4,1003.6,196.7,0.5,1.0,155.6,0.00,11.6,13.8,"02:35:08",1
"20/04/20","02:50",0.6,12.7,93.3,1003.1,38.0,0.6,1.7,218.8,0.00,11.7,13.8,"02:47:26",1
"20/04/20","03:00",0.6,12.5,93.5,1003.4,309.5,0.7,1.1,318.5,0.00,11.5,13.7,"02:50:58",1
"20/04/20","03:10",0.8,12.5,93.6,1003.6,278.0,0.7,1.0,325.4,0.00,11.5,13.7,"03:00:08",1
"20/04/20","03:20",1.0,12.5,93.7,1003.1,311.7,0.8,1.0,315.9,0.00,11.6,13.9,"03:13:04",1
"20/04/20","03:30",1.0,12.7,93.9,1003.8,331.5,0.5,1.4,119.0,0.00,11.8,13.8,"03:23:18",1
"20/04/20","03:40",0.8,12.8,94.0,1004.1,355.1,0.5,1.3,309.5,0.00,11.9,13.7,"03:31:28",1
"20/04/20","03:50",1.4,12.9,94.1,1003.8,344.3,0.6,1.4,58.9,0.00,12.0,13.6,"03:47:12",1
"20/04/20","04:00",1.2,12.8,94.2,1003.6,349.1,1.3,2.6,347.5,0.00,11.9,13.8,"03:57:04",1
"20/04/20","04:10",0.6,12.8,94.4,1003.4,335.6,0.8,2.0,349.5,0.00,12.0,13.7,"04:00:16",1
"20/04/20","04:20",0.6,12.8,94.5,1002.9,88.8,0.7,1.8,128.3,0.00,12.0,13.6,"04:12:40",1
"20/04/20","04:30",0.2,12.8,94.6,1003.1,329.4,0.7,1.7,322.9,0.00,12.0,13.8,"04:23:22",1
"20/04/20","04:40",0.2,12.8,94.7,1002.6,331.7,0.6,1.6,322.2,0.00,12.0,13.7,"04:38:26",1
"20/04/20","04:50",0.2,12.9,94.8,1003.4,102.4,0.5,1.6,129.9,0.00,12.1,13.7,"04:41:20",1
"20/04/20","05:00",0.8,12.9,94.9,1003.4,227.5,0.7,1.2,243.8,0.00,12.1,13.9,"04:50:50",1
"20/04/20","05:10",1.6,12.9,95.0,1003.6,113.9,0.5,1.2,127.1,0.00,12.2,13.7,"05:02:24",1
"20/04/20","05:20",1.0,12.9,95.1,1003.6,343.7,1.2,2.1,335.5,0.00,12.2,13.6,"05:11:44",1
"20/04/20","05:30",1.8,12.8,95.2,1003.6,152.3,1.5,2.6,132.6,0.00,12.1,13.6,"05:25:14",1
"20/04/20","05:40",1.2,12.6,95.3,1003.6,145.5,1.5,3.2,115.8,0.00,11.9,13.6,"05:33:36",1
"20/04/20","05:50",0.0,12.3,95.4,1002.9,115.4,1.6,3.4,121.3,0.00,11.6,13.5,"05:45:26",1
"20/04/20","06:00",0.2,12.2,95.5,1003.1,67.0,1.2,2.8,120.1,0.00,11.5,13.6,"05:51:28",1
"20/04/20","06:10",0.8,12.2,95.5,1002.9,82.4,0.6,1.3,314.0,0.00,11.5,13.7,"06:00:24",1
"20/04/20","06:20",0.4,12.1,95.6,1002.9,344.2,0.6,1.6,168.1,0.00,11.5,13.4,"06:11:32",1
"20/04/20","06:30",0.6,12.2,95.7,1003.1,176.8,0.6,2.5,109.2,0.00,11.6,13.6,"06:26:32",1
"20/04/20","06:40",0.8,12.2,95.7,1003.1,120.1,0.8,2.0,122.3,0.00,11.6,13.4,"06:39:44",1
"20/04/20","06:50",0.4,12.3,95.7,1002.6,103.0,1.2,2.9,129.8,0.00,11.7,13.4,"06:49:40",1
"20/04/20","07:00",0.2,12.3,95.8,1002.4,145.8,1.3,2.6,149.4,0.00,11.7,13.5,"06:57:00",1
"20/04/20","07:10",0.2,12.6,95.7,1002.6,200.1,0.6,1.8,205.9,0.02,12.0,13.5,"07:00:30",1
"20/04/20","07:20",0.0,12.8,95.7,1002.6,166.7,1.0,2.2,124.9,0.02,12.2,13.5,"07:12:20",1
"20/04/20","07:30",0.0,13.1,95.6,1002.4,215.6,0.7,1.3,283.8,0.03,12.5,13.5,"07:28:28",1
"20/04/20","07:40",0.0,13.4,95.6,1002.2,160.1,1.1,2.7,152.5,0.03,12.8,13.6,"07:32:00",1
"20/04/20","07:50",0.0,13.7,95.4,1002.2,161.7,1.3,3.9,140.9,0.03,13.0,13.6,"07:43:46",1
"20/04/20","08:00",0.0,13.9,95.3,1002.6,126.8,1.0,2.0,129.2,0.02,13.2,13.5,"07:52:04",1
"20/04/20","08:10",0.0,14.0,94.9,1002.4,134.7,0.8,2.6,129.6,0.03,13.2,13.5,"08:02:54",1
"20/04/20","08:20",0.0,14.2,95.0,1002.2,112.7,1.2,2.5,117.8,0.05,13.5,13.6,"08:17:20",1
"20/04/20","08:30",0.2,14.2,94.7,1002.6,111.8,1.0,2.7,114.2,0.02,13.4,13.6,"08:22:58",1
"20/04/20","08:40",0.4,14.4,94.6,1002.6,107.1,1.0,3.7,123.4,0.01,13.6,13.7,"08:31:52",1
"20/04/20","08:50",0.8,14.5,94.4,1002.6,27.8,0.7,1.9,110.2,0.03,13.7,13.8,"08:40:32",1
"20/04/20","09:00",0.2,14.7,94.2,1002.4,295.8,0.7,1.9,339.3,0.07,13.8,13.8,"08:54:10",1
"20/04/20","09:10",0.0,14.8,94.2,1002.4,302.5,0.5,1.4,301.7,0.05,13.9,13.7,"09:09:50",1
"20/04/20","09:20",0.0,14.7,94.0,1003.1,282.8,1.3,2.5,259.7,0.03,13.8,13.7,"09:13:46",1
"20/04/20","09:30",0.6,14.5,94.2,1002.6,288.7,1.1,2.5,308.9,0.03,13.6,13.7,"09:23:06",1
"20/04/20","09:40",0.6,14.8,94.2,1003.1,309.9,1.1,1.9,305.2,0.07,13.9,14.0,"09:36:58",1
"20/04/20","09:50",0.2,15.1,94.2,1003.1,270.5,1.0,1.8,323.6,0.10,14.2,13.6,"09:40:32",1
"20/04/20","10:00",0.2,15.4,94.1,1003.1,261.2,1.0,1.8,239.8,0.10,14.5,13.8,"09:52:56",1
"20/04/20","10:10",0.0,15.5,94.0,1003.4,262.8,1.0,1.7,237.0,0.13,14.6,13.7,"10:06:40",1
"20/04/20","10:20",0.0,15.9,94.0,1003.4,248.7,0.6,1.3,342.2,0.17,15.0,13.9,"10:18:48",1
"20/04/20","10:30",0.0,16.1,93.7,1003.4,256.2,0.7,1.3,247.1,0.18,15.1,13.9,"10:24:48",1
"20/04/20","10:40",0.0,16.3,93.6,1003.6,202.8,0.5,1.2,234.6,0.18,15.3,13.8,"10:35:12",1
"20/04/20","10:50",0.0,16.6,93.6,1002.6,134.3,0.2,0.6,61.3,0.14,15.6,14.1,"10:44:00",1
"20/04/20","11:00",0.0,17.4,93.3,1002.9,222.3,0.6,1.6,273.9,0.34,16.3,14.1,"10:59:36",1
"20/04/20","11:10",0.0,17.2,92.9,1003.1,310.1,1.0,2.0,307.8,0.13,16.1,14.3,"11:01:20",1
"20/04/20","11:20",0.0,17.0,93.0,1002.4,302.1,1.2,2.0,328.9,0.16,15.9,14.1,"11:16:32",1
"20/04/20","11:30",0.0,16.8,92.4,1002.6,307.2,1.3,2.0,339.0,0.12,15.6,14.1,"11:20:48",1
"20/04/20","11:40",0.0,17.0,92.1,1002.6,288.6,0.3,1.0,273.2,0.10,15.7,14.2,"11:30:08",1
"20/04/20","11:50",0.0,16.6,91.6,1002.9,114.0,1.1,2.2,115.7,0.09,15.3,14.3,"11:46:32",1
"20/04/20","12:00",0.0,16.5,91.2,1002.6,83.0,0.7,1.6,107.1,0.05,15.1,14.5,"11:57:12",1
"20/04/20","12:10",0.0,16.4,90.9,1002.9,106.3,1.3,2.8,123.8,0.04,15.0,14.5,"12:06:00",1
"20/04/20","12:20",0.0,16.2,90.6,1002.9,108.4,1.5,2.7,109.9,0.04,14.7,14.6,"12:10:24",1
"20/04/20","12:30",0.0,16.0,90.2,1002.9,77.6,1.1,2.1,83.4,0.05,14.4,14.6,"12:29:12",1
"20/04/20","12:40",0.0,16.0,89.8,1003.1,94.2,1.1,2.2,109.2,0.04,14.4,14.8,"12:30:32",1
"20/04/20","12:50",0.0,15.9,89.4,1002.9,89.5,0.8,1.9,102.0,0.03,14.2,14.7,"12:43:28",1
"20/04/20","13:00",0.0,15.9,89.2,1002.6,66.3,0.5,1.2,103.2,0.01,14.2,14.6,"12:52:16",1
"20/04/20","13:10",0.0,16.0,89.1,1002.9,229.1,0.6,1.0,229.7,0.01,14.2,14.8,"13:07:06",1
"20/04/20","13:20",0.0,15.9,89.0,1002.6,180.7,0.7,1.4,221.3,0.02,14.1,14.6,"13:18:48",1
"20/04/20","13:30",0.0,15.9,89.0,1002.9,185.0,0.7,1.6,150.2,0.02,14.1,14.9,"13:26:00",1
"20/04/20","13:40",0.0,15.9,89.0,1002.6,276.1,0.3,0.8,320.0,0.01,14.1,14.8,"13:38:08",1
"20/04/20","13:50",0.2,16.0,89.0,1002.6,66.8,0.1,0.6,343.3,0.03,14.2,14.6,"13:45:44",1
"20/04/20","14:00",0.0,16.0,88.9,1002.4,124.7,0.2,0.8,318.2,0.04,14.2,14.7,"13:58:48",1
"20/04/20","14:10",0.0,16.1,88.8,1002.9,243.0,0.3,1.2,242.5,0.02,14.3,14.8,"14:08:16",1
"20/04/20","14:20",0.0,16.1,88.9,1002.4,291.4,0.2,0.8,235.8,0.03,14.3,14.8,"14:10:16",1
"20/04/20","14:30",0.0,16.7,88.9,1002.6,278.0,0.3,1.1,333.8,0.15,14.9,14.7,"14:24:48",1
"20/04/20","14:40",0.0,17.7,88.3,1002.4,281.2,1.1,1.8,312.7,0.36,15.8,14.8,"14:33:36",1
"20/04/20","14:50",0.0,18.4,87.3,1001.9,272.6,1.0,1.9,219.5,0.30,16.3,15.0,"14:49:04",1
"20/04/20","15:00",0.0,17.9,85.7,1002.2,194.0,1.0,2.1,129.8,0.22,15.5,14.8,"14:51:20",1
"20/04/20","15:10",0.0,17.7,84.5,1002.2,163.4,1.0,2.9,120.0,0.14,15.1,14.9,"15:03:36",1
"20/04/20","15:20",0.0,17.5,84.1,1002.6,143.5,1.1,3.2,144.0,0.08,14.8,14.9,"15:16:56",1
"20/04/20","15:30",0.0,17.4,83.7,1002.4,103.6,1.0,2.2,122.6,0.06,14.7,14.9,"15:21:44",1
"20/04/20","15:40",0.0,17.0,83.6,1002.4,26.1,0.7,1.6,318.9,0.01,14.2,15.2,"15:37:36",1
"20/04/20","15:50",0.0,16.9,83.9,1002.4,359.9,0.7,1.6,350.2,0.00,14.2,15.1,"15:45:20",1
"20/04/20","16:00",0.0,17.0,84.3,1002.6,316.6,0.5,1.3,340.0,0.02,14.4,15.2,"15:54:56",1
"20/04/20","16:10",0.0,17.0,84.6,1002.2,358.7,0.6,1.7,349.2,0.03,14.4,15.2,"16:09:20",1
"20/04/20","16:20",0.0,17.0,84.8,1002.4,324.3,1.1,1.8,334.0,0.02,14.5,14.9,"16:16:16",1
"20/04/20","16:30",0.0,17.1,85.0,1002.4,319.0,1.1,1.6,316.3,0.04,14.6,15.0,"16:21:52",1
"20/04/20","16:40",0.0,17.1,85.0,1002.4,328.5,0.5,1.2,307.9,0.03,14.6,15.2,"16:39:36",1
"20/04/20","16:50",0.0,17.0,85.0,1002.4,346.8,0.3,1.2,327.5,0.00,14.5,15.1,"16:40:08",1
"20/04/20","17:00",0.0,16.9,84.9,1002.9,323.2,0.7,1.3,331.7,0.00,14.4,15.2,"16:54:40",1
"20/04/20","17:10",0.0,16.9,84.8,1002.6,332.2,0.5,1.1,346.4,0.00,14.4,15.2,"17:02:08",1
"20/04/20","17:20",0.0,16.9,84.9,1003.4,322.7,0.5,1.2,327.6,0.00,14.4,15.3,"17:10:24",1
"20/04/20","17:30",0.0,16.7,85.0,1003.4,49.2,0.5,1.0,345.1,0.00,14.2,15.2,"17:26:00",1
"20/04/20","17:40",0.0,16.6,85.3,1003.6,309.1,0.2,0.8,108.1,0.00,14.2,15.0,"17:32:00",1
"20/04/20","17:50",0.0,16.6,85.8,1003.6,117.9,0.3,1.3,116.9,0.00,14.3,15.1,"17:43:52",1
"20/04/20","18:00",0.0,16.5,86.1,1003.4,65.8,0.5,1.2,110.2,0.00,14.2,14.9,"17:54:48",1
"20/04/20","18:10",0.0,16.3,86.3,1003.6,347.5,0.3,0.9,198.0,0.00,14.0,15.1,"18:04:40",1
"20/04/20","18:20",0.0,16.2,86.5,1004.3,317.4,0.5,0.9,307.7,0.00,14.0,15.2,"18:10:40",1
"20/04/20","18:30",0.0,16.1,86.8,1004.3,51.5,0.5,1.1,78.1,0.00,13.9,15.1,"18:28:00",1
"20/04/20","18:40",0.0,15.9,87.0,1004.3,89.2,0.5,1.3,119.0,0.00,13.8,15.0,"18:39:04",1
"20/04/20","18:50",0.0,15.7,87.3,1004.8,55.6,0.3,1.2,112.9,0.00,13.6,14.9,"18:40:32",1
"20/04/20","19:00",0.0,15.6,87.5,1004.3,2.4,0.2,0.6,342.3,0.00,13.6,15.0,"18:55:28",1
"20/04/20","19:10",0.0,15.4,87.8,1004.5,255.4,0.1,0.5,323.5,0.00,13.4,15.1,"19:01:20",1
"20/04/20","19:20",0.0,15.2,87.9,1004.5,299.7,0.2,0.6,302.7,0.00,13.2,14.8,"19:15:20",1
"20/04/20","19:30",0.0,15.0,88.0,1004.5,320.9,0.3,0.8,305.0,0.00,13.1,15.1,"19:29:28",1
"20/04/20","19:40",0.0,14.6,88.4,1004.8,281.4,0.8,1.4,273.2,0.00,12.7,14.8,"19:31:44",1
"20/04/20","19:50",0.0,14.5,88.7,1004.8,327.9,1.2,1.6,336.4,0.00,12.7,14.9,"19:45:04",1
"20/04/20","20:00",0.0,14.4,89.2,1005.2,328.9,1.3,1.9,331.5,0.00,12.7,14.8,"19:57:20",1
"20/04/20","20:10",0.0,14.0,89.5,1004.3,265.6,0.5,1.3,329.6,0.00,12.3,14.8,"20:00:16",1
"20/04/20","20:20",0.0,13.8,90.0,1004.8,313.0,1.3,1.8,311.1,0.00,12.2,14.7,"20:19:52",1
"20/04/20","20:30",0.0,13.7,90.4,1004.8,289.0,1.5,2.0,295.8,0.00,12.2,14.7,"20:26:16",1
"20/04/20","20:40",0.0,13.7,90.8,1004.8,299.5,1.3,2.2,307.8,0.00,12.3,14.7,"20:35:04",1
"20/04/20","20:50",0.0,13.7,91.2,1005.0,262.1,1.0,1.2,252.3,0.00,12.3,14.7,"20:43:44",1
"20/04/20","21:00",0.0,13.8,91.5,1005.2,276.1,1.0,1.4,251.0,0.00,12.5,14.7,"20:50:02",1
"20/04/20","21:10",0.0,13.8,91.8,1005.2,263.8,0.8,1.4,248.1,0.00,12.5,14.5,"21:00:32",1
"20/04/20","21:20",0.0,13.9,91.8,1005.5,282.8,0.6,1.7,325.8,0.00,12.6,14.7,"21:19:36",1
"20/04/20","21:30",0.0,14.0,92.0,1005.2,311.2,1.6,2.0,321.2,0.00,12.8,14.6,"21:21:52",1
"20/04/20","21:40",0.0,13.9,92.2,1005.7,310.3,1.0,1.1,314.2,0.00,12.7,14.5,"21:33:52",1
"20/04/20","21:50",0.0,13.9,92.4,1006.0,274.5,0.8,1.1,259.2,0.00,12.7,14.4,"21:48:16",1
"20/04/20","22:00",0.0,13.9,92.5,1006.2,281.1,0.6,0.9,276.2,0.00,12.7,14.5,"21:50:08",1
"20/04/20","22:10",0.0,13.8,92.6,1006.0,253.4,0.2,0.6,232.4,0.00,12.7,14.6,"22:04:08",1
"20/04/20","22:20",0.0,13.9,92.7,1006.2,316.5,0.8,1.6,324.0,0.00,12.8,14.6,"22:14:56",1
"20/04/20","22:30",0.0,13.9,92.9,1006.0,316.8,1.2,1.7,318.0,0.00,12.8,14.4,"22:27:04",1
"20/04/20","22:40",0.0,13.8,93.0,1006.0,313.4,0.5,1.4,319.6,0.00,12.7,14.7,"22:31:44",1
"20/04/20","22:50",0.0,13.8,93.1,1006.0,249.7,0.3,0.9,305.8,0.00,12.7,14.6,"22:49:28",1
"20/04/20","23:00",0.0,13.7,93.2,1006.2,308.0,1.0,1.9,321.2,0.00,12.7,14.6,"22:57:28",1
"20/04/20","23:10",0.0,13.7,93.3,1006.0,315.7,1.0,1.3,324.6,0.00,12.7,14.6,"23:03:12",1
"20/04/20","23:20",0.0,13.6,93.4,1005.5,300.8,0.8,1.7,312.9,0.00,12.6,14.2,"23:19:36",1
"20/04/20","23:30",0.0,13.6,93.4,1006.2,303.6,1.3,2.0,323.9,0.00,12.6,14.4,"23:22:00",1
"20/04/20","23:40",0.0,13.5,93.5,1006.2,288.6,1.1,1.6,310.8,0.00,12.5,14.2,"23:37:28",1
"20/04/20","23:50",0.0,13.5,93.5,1006.2,274.6,1.1,1.4,267.0,0.00,12.5,14.4,"23:44:24",1
"20/04/20","24:00",0.0,13.4,93.6,1006.2,293.2,1.1,1.4,312.8,0.00,12.4,14.4,"23:55:20",1
